OBJECT XJ, 65730

Orbit data source: Space-Track

You're viewing an Uncataloged Satellite

Recently launched and/or uncataloged satellites may have evolving metadata. Metadata may include but not limited to: Owner, Maufacturer, Bus, Motor, and Mission.

OBJECT XJ, 65730 is a Japanese satellite in LEO that was delivered to and deployed from the ISS. Unknown objects in Earth's orbit typically refer to objects detected orbiting the Earth but have not yet been identified or cataloged. These objects could be anything from previously untracked satellites, spent rocket stages, debris from satellite collisions, or even natural meteoroids temporarily captured by Earth's gravity.

Loading next visibility...
Identifier
65730, 1998-067XJ
Orbit
LEO
Country
Flag of JPJP / JPN
Related business
None
Manufacturer
Unknown
Mission
Operational spacecraft
Bus & Motor
Unknown
Mass
Unknown
Launch date (UTC)
1998-11-20 (27 years ago)
Launch vehicle
FALCON 9
Launch site
Tyuratam Missile And Space Complex (TTMTR)
Object type
Unknown
Shape & HBR
Unknown shape, 1.1 m
Radar Cross Section
RCS unknown

Expand to show TLE details & history
Last TLE update: 16 hours ago

TLE from 16 hours ago
0 OBJECT XJ
1 65730U 98067XJ  25297.48757041  .00243620  00000-0  24542-2 0  9998
2 65730  51.6312  24.4014 0009359   8.4661 351.6490 15.64025997  5468
Epoch: 2025-10-24T11:42Z
TLE epoch observation values (Epoch: 2025-10-24T11:42:06.083Z)
Latitude
-0.00002°
Longitude
175.74428°
Altitude
370.532 km
Speed
7.692 km/s
True Right ascension
01h 37m 36s
True Declination
0° 00' 00"
Sunlit
Object was in full shadow at epoch
Visualization orbit readout
Latitude
Unknown
Longitude
Unknown
Altitude
Unknown
Speed
Unknown
Apparent Right ascension
Unknown
Apparent Declination
Unknown
Sunlit
N/A
Visualization observer readout
Local Sidereal Time
23:15:53
Azimuth
Unknown
Elevation
Unknown
Doppler factor
Unknown
Orbital elements
Apogee altitude
382.876 km
Perigee altitude
370.232 km
Semi-major axis
6,754.691 km
Eccentricity
0.00094
Inclination
51.6312°
RAAN
24.4014°
Arg. of periapsis
8.4661°
True anomaly
351.63341°
Mean anomaly
351.649°
Eccentric anomaly
351.6412°
Mean motion
3.90962 °/min
Orbital period
92.08 mins
BSTAR
0.0024542
Loading maneuver chart data...
Computing Atmospheric mass density...

Documentation

Showing up to 5 results
|